DECAYED

STARLINK-1011, 44717 (Decayed)

Orbit data source: Space-Track

STARLINK-1011, 44717 was a payload satellite owned by SpaceX/Seattle (US) in LEO that was launched on Mon, 11 Nov 2019 UTC via an FALCON 9 launch vehicle from the Air Force Eastern Test Range (AFETR). Payload-class satellites include a variety of spacecraft equipped with specific instruments for various scientific and technological missions. These include communications satellites like Starlink; space stations such as the ISS; scientific satellites like the Hubble; Earth observation satellites from companies like Planet Labs, Umbra, and HawkEye 360; GPS; miniature CubeSats for education and research; and military/defense satellites.

Not visible in the next 10 days
Identifier
44717, 2019-074E
Orbit
Decayed
Country
Flag of USUS
Related business
Manufacturer
SpaceX/Seattle
Mission
Decayed Commercial Communications
Bus & Motor
STARLINK, Unknown motor
Mass
260 kg wet, ~248 kg dry
Launch date (UTC)
2019-11-11 (7 years ago)
Launch vehicle
FALCON 9
Launch site
Air Force Eastern Test Range (AFETR)
Object type
Payload
Rocket body
Debris
Shape & HBR
Box + 1 Pan, 10.1 m
Radar Cross Section
13.562 m², Large (>1 m²)

Expand to show TLE details & history
Last TLE update: 6 months ago

TLE from 6 months ago
0 STARLINK-1011
1 44717U 19074E   25340.02962256  .10366512  12452-4  28445-3 0  9998
2 44717  53.0288 205.3540 0006732 242.0271 118.0096 16.45144333335219
Epoch: 2025-12-06T00:42Z
TLE epoch observation values (Epoch: 2025-12-06T00:42:39.389Z)
Latitude
-0.00005°
Longitude
119.62662°
Altitude
155.15 km
Speed
7.813 km/s
True Right ascension
13h 41m 24s
True Declination
0° 00' 00"
Sunlit
Object was in daylight at epoch
Visualization orbit readout
Latitude
Unknown
Longitude
Unknown
Altitude
Unknown
Speed
Unknown
Apparent Right ascension
Unknown
Apparent Declination
Unknown
Sunlit
N/A
Visualization observer readout
Local Sidereal Time
22:44:59
Azimuth
Unknown
Elevation
Unknown
Doppler factor
Unknown
Orbital elements
Apogee altitude
156.841 km
Perigee altitude
148.048 km
Semi-major axis
6,530.582 km
Eccentricity
0.00067
Inclination
53.0288°
RAAN
205.354°
Arg. of periapsis
242.0271°
True anomaly
118.07768°
Mean anomaly
118.0096°
Eccentric anomaly
118.04364°
Mean motion
4.11259 °/min
Orbital period
87.54 mins
BSTAR
0.00028445
Loading maneuver chart data...
Computing Atmospheric mass density...

Documentation

Showing up to 5 results
|